Simultaneous Nadir Overpasses (SNOs) Predictions

Prediction of SNOs between NPP and TERRA Satellite Orbit:

Table of predicted SNOs for the next 14.0 days since TLE Epoch: 4/19/2015
Index Date (NPP) Time (NPP) Lat,Lon (NPP) SZA (NPP ) Date (TERRA) Time (TERRA) Lat,Lon (TERRA) SZA (TERRA ) Distance(km) Time Diff (sec)
1 04/19/2015 15:04:49 -69.64, 132.20 121.67 04/19/2015 15:05:58 -69.53, 133.72 121.79 60.19 69
2 04/19/2015 15:55:22 68.93, -59.50 57.60 04/19/2015 15:55:34 68.92, -59.43 57.59 3.08 12
3 04/19/2015 16:46:03 -68.80, 108.00 122.55 04/19/2015 16:45:04 -68.81, 108.06 122.54 2.81 59
4 04/22/2015 07:21:27 -68.98,-111.09 123.25 04/22/2015 07:22:33 -68.98,-111.10 123.25 0.47 66
5 04/22/2015 08:12:11 68.86, 56.38 56.62 04/22/2015 08:12:00 68.87, 56.40 56.62 1.22 11
6 04/22/2015 09:02:47 -68.46,-135.77 123.80 04/22/2015 09:01:35 -68.48,-136.44 123.78 27.66 72
7 04/24/2015 23:38:17 -68.97, 4.71 124.16 04/24/2015 23:38:58 -68.95, 4.77 124.17 2.85 41
8 04/25/2015 00:29:00 68.79, 172.25 55.66 04/25/2015 00:28:26 68.78, 172.19 55.64 2.93 34
9 04/27/2015 15:04:34 69.58, -47.70 55.61 04/27/2015 15:05:43 69.49, -46.26 55.52 56.70 69
10 04/27/2015 15:55:05 -68.91, 120.56 125.08 04/27/2015 15:55:22 -68.89, 120.59 125.10 2.68 17
11 04/27/2015 16:45:48 68.74, -71.90 54.74 04/27/2015 16:44:49 68.76, -71.92 54.77 2.87 59
12 04/30/2015 07:21:12 68.95, 68.98 54.14 04/30/2015 07:22:16 68.94, 68.93 54.13 1.96 64
13 04/30/2015 08:11:54 -68.86,-123.59
